Regional & State Weather Roundups


082 
ASUS41 KCLE 132012
RWRCLE
OHIO REGIONAL WEATHER ROUNDUP
NATIONAL WEATHER SERVICE WILMINGTON, OH
300 PM EST TUE NOV 13 2018
NOTE: "FAIR" INDICATES FEW OR NO CLOUDS BELOW 12,000 FEET WITH NO
SIGNIFICANT WEATHER AND/OR OBSTRUCTIONS TO VISIBILITY.
OHZ001>008-015>018-024>027-034-035-043-044-132100-
   NORTHWEST OHIO
  
CITY           SKY/WX    TMP DP  RH WIND       PRES   REMARKS
DEFIANCE       CLOUDY    33  25  72 W12       30.30S WCI  24          
FINDLAY        CLOUDY    36  24  62 W13       30.27R                  
TOLEDO EXPRESS CLOUDY    35  21  56 W14       30.28R WCI  26          
TOLEDO EXEC    CLOUDY    35  23  61 NW14      30.28S WCI  26          
LIMA           CLOUDY    34  23  64 NW14      30.28R WCI  25          
$$
 
OHZ009>014-019>023-028>033-038-089-132100-
   NORTHEAST OHIO
  
CITY           SKY/WX    TMP DP  RH WIND       PRES   REMARKS
CLE-HOPKINS    CLOUDY    36  24  62 W15       30.25R                  
CLE-LAKEFRONT  CLOUDY    37  24  59 W22       30.22R                  
CUY CO. ARPT   CLOUDY    36  21  55 NW17      30.21R                  
LORAIN-ELYRIA  CLOUDY    34  20  56 NW21G26   30.25R WCI  22          
ASHTABULA      CLOUDY    34  26  72 NW10      30.19R WCI  26          
AKRON-CANTON   CLOUDY    36  24  62 NW14      30.19S                  
WOOSTER        CLOUDY    34  25  69 NW15      30.22R WCI  24          
MANSFIELD      CLOUDY    33  24  69 NW10      30.23R WCI  25          
YOUNGSTOWN     CLOUDY    35  28  75 NW12      30.17R WCI  27          
$$
 
OHZ042-051>053-060>062-070>072-077>081-132100-
  SOUTHWEST OHIO
  
CITY           SKY/WX    TMP DP  RH WIND       PRES   REMARKS
CINC-COVINGTON CLOUDY    37  27  67 NW10      30.30R                  
CINC-LUNKEN    CLOUDY    38  27  64 NW10      30.32R                  
HAMILTON       CLOUDY    38  26  62 NW13      30.32R                  
DAYTON         CLOUDY    36  22  56 NW13      30.30R                  
WRIGHT-PAT AFB CLOUDY    37  21  53 NW14      30.28R                  
DAYTON GENERAL CLOUDY    38  22  52 NW14      30.29R                  
WILMINGTON     CLOUDY    36  24  62 NW10      30.28R                  
$$
OHZ036-037-039>041-045>050-054>059-063>069-073>076-082>088-132100-
  CENTRAL AND SOUTHEAST OHIO
  
CITY           SKY/WX    TMP DP  RH WIND       PRES   REMARKS
COLUMBUS       CLOUDY    38  22  52 N15       30.25S                  
OSU AIRPORT    CLOUDY    36  24  62 NW12G22   30.25S                  
BOLTON FIELD   CLOUDY    36  25  64 NW12      30.26S                  
RICKENBACK AFB CLOUDY    37  24  59 NW10      30.26S                  
NEWARK         CLOUDY    37  25  61 NW14G20   30.24R                  
MARION         CLOUDY    35  24  64 MISG      30.26S                  
LANCASTER      CLOUDY    37  26  64 NW12      30.25S                  
ZANESVILLE     CLOUDY    38  29  70 NW8       30.23R                  
NEW PHILLY     CLOUDY    36  29  75 NW9       30.22R                  
$$